Change the Weather History Date:

Saturday, June 29, 2013

  Actual Average Record
Temperature  
Mean Temperature 94 °F 80 °F  
Max Temperature 111 °F 95 °F 111 °F (2013)
Min Temperature 77 °F 65 °F 50 °F (1996)
Degree Days  
Heating Degree Days 0    
Month to date heating degree days 0  
Since 1 June heating degree days 0  
Since 1 July heating degree days 2717  
Cooling Degree Days 29    
Month to date cooling degree days 435  
Year to date cooling degree days 693  
Since 1 June cooling degree days 435  
Growing Degree Days 44 (Base 50)    
Moisture  
Dew Point 47 °F    
Average Humidity 22    
Maximum Humidity 35    
Minimum Humidity 9    
Precipitation  
Precipitation 0.00 in 0.00 in 0.00 in (2015)
Month to date precipitation 0.00 0.05  
Year to date precipitation 1.10 4.91  
Since 1 July precipitation 1.26 7.38  
Snow  
Snow 0.00 in - 0.00 in ()
Month to date snowfall 0.0  
Since 1 June snowfall 0.0  
Since 1 July snowfall 0.0  
Snow Depth 0.00 in    
Sea Level Pressure  
Sea Level Pressure 29.82 in    
Wind  
Wind Speed 13 mph (West)    
Max Wind Speed 23 mph    
Max Gust Speed 29 mph    
Visibility 10 miles    
Events      
T = Trace of Precipitation, MM = Missing Value Source: NWS Daily Summary

Daily Weather History Graph

Daily Weather History Graph

Search for Another Location

Airport or City:

Trip Planner

Search our weather history database for the weather conditions in past years. The results will help you decide how hot, cold, wet, or windy it might be!

Date:

Astronomy

Jun. 29, 2013 Rise Set
Actual Time 5:42 AM PDT 8:10 PM PDT
Civil Twilight 5:13 AM PDT 8:39 PM PDT
Nautical Twilight 4:36 AM PDT 9:16 PM PDT
Astronomical Twilight 3:56 AM PDT 9:56 PM PDT
Moon No Moon Rise 12:40 PM PDT (6/29)
Length of Visible Light 15h 26m
Length of Day
14h 27m
Waning Gibbous, 54% of the Moon is Illuminated
Jun 29
Waning Gibbous
Jun 29
Last Quarter
Jul 8
New
Jul 15
First Quarter
Jul 22
Full

Hourly Weather History & Observations

Time (PDT) Temp. Dew Point Humidity Pressure Visibility Wind Dir Wind Speed Gust Speed Precip Events Conditions
12:56 AM 84.9 °F 45.0 °F 25% 29.88 in 10.0 mi West 13.8 mph - N/A   Clear
1:56 AM 84.0 °F 46.9 °F 27% 29.87 in 10.0 mi West 13.8 mph - N/A   Clear
2:56 AM 82.9 °F 48.0 °F 29% 29.87 in 10.0 mi West 12.7 mph - N/A   Clear
3:56 AM 81.0 °F 48.9 °F 33% 29.86 in 10.0 mi West 8.1 mph - N/A   Clear
4:56 AM 81.0 °F 50.0 °F 34% 29.86 in 10.0 mi WNW 9.2 mph - N/A   Clear
5:56 AM 78.1 °F 50.0 °F 37% 29.88 in 10.0 mi Calm Calm - N/A   Clear
6:56 AM 84.9 °F 52.0 °F 32% 29.86 in 10.0 mi West 15.0 mph - N/A   Clear
7:56 AM 90.0 °F 51.1 °F 26% 29.87 in 10.0 mi West 13.8 mph - N/A   Clear
8:56 AM 93.9 °F 50.0 °F 22% 29.87 in 10.0 mi WNW 12.7 mph - N/A   Clear
9:56 AM 97.0 °F 48.9 °F 19% 29.86 in 10.0 mi WNW 10.4 mph 18.4 mph N/A   Clear
10:56 AM 102.0 °F 46.0 °F 15% 29.85 in 10.0 mi Variable 5.8 mph - N/A   Clear
11:56 AM 105.1 °F 43.0 °F 12% 29.83 in 10.0 mi WNW 8.1 mph - N/A   Clear
12:56 PM 107.1 °F 42.1 °F 11% 29.81 in 10.0 mi West 6.9 mph - N/A   Clear
1:56 PM 109.0 °F 41.0 °F 10% 29.79 in 10.0 mi Variable 5.8 mph - N/A   Clear
2:56 PM 109.0 °F 39.0 °F 9% 29.78 in 10.0 mi WSW 15.0 mph 20.7 mph N/A   Clear
3:56 PM 109.0 °F 39.9 °F 10% 29.76 in 10.0 mi WSW 12.7 mph 21.9 mph N/A   Clear
4:56 PM 108.0 °F 39.9 °F 10% 29.76 in 10.0 mi WSW 18.4 mph 28.8 mph N/A   Clear
5:56 PM 104.0 °F 46.9 °F 15% 29.76 in 10.0 mi West 19.6 mph - N/A   Clear
6:56 PM 99.0 °F 48.0 °F 18% 29.78 in 10.0 mi West 18.4 mph - N/A   Clear
7:56 PM 93.9 °F 50.0 °F 22% 29.78 in 10.0 mi West 19.6 mph - N/A   Clear
8:56 PM 91.0 °F 48.9 °F 23% 29.79 in 10.0 mi West 18.4 mph - N/A   Clear
9:56 PM 89.1 °F 48.9 °F 25% 29.80 in 10.0 mi West 13.8 mph - N/A   Clear
10:56 PM 89.1 °F 48.9 °F 25% 29.80 in 10.0 mi West 13.8 mph - N/A   Clear
11:56 PM 88.0 °F 46.0 °F 23% 29.80 in 10.0 mi West 12.7 mph - N/A   Clear